| time (UTC) | temp F | wind direction | speed knots | gust knots | rain 1hr in | rain 24hr in | rain mn in | humidity % | barometer mb |
| 20260902150040 | 56 | 203 | 1.7 | 4.3 | 0.00 | 0.00 | 0.00 | 86 | 1008.4 |
| 20260902144538 | 56 | 203 | 3.5 | 5.2 | 0.00 | 0.00 | 0.00 | 84 | 1008.4 |
| 20260902143039 | 56 | 203 | 0.9 | 3.5 | 0.00 | 0.00 | 0.00 | 84 | 1008.3 |
| 20260902141546 | 56 | 203 | 3.5 | 7.0 | 0.00 | 0.00 | 0.00 | 84 | 1008.1 |
| 20260902140036 | 55 | 203 | 0.9 | 3.5 | 0.00 | 0.00 | 0.00 | 84 | 1008.2 |
| 20260902134544 | 56 | 203 | 2.6 | 6.1 | 0.00 | 0.00 | 0.00 | 83 | 1007.7 |
| 20260902133039 | 56 | 203 | 4.3 | 7.0 | 0.00 | 0.00 | 0.00 | 83 | 1007.6 |
| 20260902131535 | 56 | 203 | 3.5 | 7.0 | 0.00 | 0.00 | 0.00 | 83 | 1007.3 |
| 20260902130038 | 57 | 203 | 4.3 | 8.7 | 0.00 | 0.00 | 0.00 | 82 | 1007.2 |
| 20260902124539 | 57 | 202 | 6.1 | 8.7 | 0.00 | 0.00 | 0.00 | 82 | 1007.1 |
| 20260902123037 | 57 | 202 | 5.2 | 8.7 | 0.00 | 0.00 | 0.00 | 83 | 1007.2 |
| 20260902121540 | 57 | 198 | 6.1 | 8.7 | 0.00 | 0.00 | 0.00 | 80 | 1007.1 |
| 20260902120039 | 58 | 193 | 5.2 | 8.7 | 0.00 | 0.00 | 0.00 | 80 | 1007.3 |
| 20260902114540 | 58 | 192 | 6.1 | 11.3 | 0.00 | 0.00 | 0.00 | 80 | 1007.6 |
| 20260902113037 | 57 | 190 | 5.2 | 8.7 | 0.00 | 0.00 | 0.00 | 82 | 1007.7 |
| 20260902111538 | 56 | 190 | 2.6 | 5.2 | 0.00 | 0.00 | 0.00 | 80 | 1007.3 |
| 20260902110038 | 57 | 190 | 2.6 | 6.1 | 0.00 | 0.00 | 0.00 | 79 | 1007.1 |
| 20260902104542 | 57 | 190 | 4.3 | 7.0 | 0.00 | 0.00 | 0.00 | 78 | 1006.9 |
| 20260902103036 | 56 | 183 | 4.3 | 7.8 | 0.00 | 0.00 | 0.00 | 79 | 1006.8 |
| 20260902101533 | 56 | 183 | 1.7 | 3.5 | 0.00 | 0.00 | 0.00 | 79 | 1006.8 |
| 20260902100040 | 56 | 183 | 2.6 | 4.3 | 0.00 | 0.00 | 0.00 | 79 | 1007.0 |
| 20260902094537 | 56 | 183 | 2.6 | 4.3 | 0.00 | 0.00 | 0.00 | 78 | 1006.6 |
| 20260902093040 | 57 | 183 | 3.5 | 5.2 | 0.00 | 0.00 | 0.00 | 77 | 1006.7 |
| 20260902091538 | 58 | 183 | 2.6 | 3.5 | 0.00 | 0.00 | 0.00 | 77 | 1006.7 |
| 20260902090037 | 59 | 183 | 0.9 | 2.6 | 0.00 | 0.00 | 0.00 | 75 | 1006.9 |
| 20260902084541 | 61 | 183 | 0.9 | 3.5 | 0.00 | 0.00 | 0.00 | 71 | 1006.8 |
| 20260902083039 | 62 | 183 | 1.7 | 3.5 | 0.00 | 0.00 | 0.00 | 71 | 1006.5 |
| 20260902081538 | 61 | 183 | 1.7 | 3.5 | 0.00 | 0.00 | 0.00 | 73 | 1006.6 |
| 20260902080039 | 61 | 183 | 2.6 | 4.3 | 0.00 | 0.00 | 0.00 | 73 | 1006.4 |
| 20260902074547 | 61 | 183 | 2.6 | 5.2 | 0.00 | 0.00 | 0.00 | 73 | 1006.4 |
| 20260902073037 | 61 | 183 | 3.5 | 5.2 | 0.00 | 0.00 | 0.00 | 73 | 1006.2 |
| 20260902071538 | 63 | 183 | 1.7 | 3.5 | 0.00 | 0.00 | 0.00 | 69 | 1006.2 |
| 20260902070039 | 64 | 183 | 1.7 | 2.6 | 0.00 | 0.00 | 0.00 | 69 | 1006.1 |
| 20260902064536 | 65 | 183 | 1.7 | 3.5 | 0.00 | 0.00 | 0.00 | 67 | 1006.0 |
| 20260902063059 | 64 | 183 | 6.1 | 9.6 | 0.00 | 0.00 | 0.00 | 70 | 1005.8 |
| 20260902061536 | 63 | 147 | 2.6 | 7.8 | 0.00 | 0.00 | 0.00 | 70 | 1005.7 |
| 20260902060052 | 64 | 125 | 2.6 | 7.0 | 0.00 | 0.00 | 0.00 | 68 | 1005.4 |
| 20260902054539 | 64 | 121 | 2.6 | 7.0 | 0.00 | 0.00 | 0.00 | 68 | 1005.4 |
| 20260902053035 | 65 | 121 | 3.5 | 7.0 | 0.00 | 0.00 | 0.00 | 67 | 1005.2 |
| 20260902051544 | 64 | 120 | 2.6 | 7.0 | 0.00 | 0.00 | 0.00 | 68 | 1005.1 |
| 20260902050035 | 64 | 120 | 0.0 | 3.5 | 0.00 | 0.00 | 0.00 | 67 | 1004.9 |
| 20260902044540 | 65 | 120 | 1.7 | 5.2 | 0.00 | 0.00 | 0.00 | 64 | 1004.8 |
| 20260902043100 | 66 | 120 | 1.7 | 3.5 | 0.00 | 0.00 | 0.00 | 63 | 1004.8 |
| 20260902041554 | 67 | 120 | 1.7 | 2.6 | 0.00 | 0.00 | 0.00 | 62 | 1004.7 |
| 20260902040041 | 68 | 120 | 1.7 | 5.2 | 0.00 | 0.00 | 0.00 | 62 | 1004.6 |
| 20260902034546 | 70 | 120 | 1.7 | 3.5 | 0.00 | 0.00 | 0.00 | 61 | 1004.5 |
| 20260902033035 | 71 | 120 | 1.7 | 5.2 | 0.00 | 0.00 | 0.00 | 59 | 1004.5 |
| 20260902031541 | 71 | 0 | 0.0 | 2.6 | 0.00 | 0.00 | 0.00 | 58 | 1004.1 |
| 20260902030041 | 72 | 120 | 0.9 | 5.2 | 0.00 | 0.00 | 0.00 | 58 | 1004.1 |
| 20260902024536 | 73 | 120 | 2.6 | 5.2 | 0.00 | 0.00 | 0.00 | 57 | 1003.8 |
| 20260902023038 | 73 | 120 | 2.6 | 5.2 | 0.00 | 0.00 | 0.00 | 59 | 1003.8 |
| 20260902021538 | 74 | 120 | 2.6 | 5.2 | 0.00 | 0.00 | 0.00 | 59 | 1003.8 |
| 20260902020038 | 75 | 120 | 1.7 | 6.1 | 0.00 | 0.00 | 0.00 | 58 | 1003.8 |
| 20260902014538 | 77 | 120 | 3.5 | 6.1 | 0.00 | 0.00 | 0.00 | 53 | 1004.1 |
| 20260902013048 | 77 | 120 | 1.7 | 3.5 | 0.00 | 0.00 | 0.00 | 51 | 1004.1 |
| 20260902011537 | 77 | 120 | 2.6 | 6.1 | 0.00 | 0.00 | 0.00 | 53 | 1004.2 |
| 20260902010047 | 78 | 120 | 2.6 | 6.1 | 0.00 | 0.00 | 0.00 | 52 | 1004.3 |
| 20260902004537 | 79 | 120 | 3.5 | 6.1 | 0.00 | 0.00 | 0.00 | 50 | 1004.2 |
| 20260902003113 | 80 | 120 | 4.3 | 7.8 | 0.00 | 0.00 | 0.00 | 48 | 1004.3 |
| 20260902001537 | 81 | 120 | 6.1 | 10.4 | 0.00 | 0.00 | 0.00 | 47 | 1004.2 |
| 20260902000040 | 81 | 134 | 2.6 | 7.8 | 0.00 | 0.00 | 0.00 | 45 | 1004.3 |
| 20260901234539 | 80 | 136 | 5.2 | 8.7 | 0.00 | 0.00 | 0.00 | 44 | 1004.5 |
| 20260901233039 | 80 | 138 | 4.3 | 8.7 | 0.00 | 0.00 | 0.00 | 45 | 1004.4 |
| 20260901231547 | 80 | 152 | 4.3 | 8.7 | 0.00 | 0.00 | 0.00 | 46 | 1004.6 |
| 20260901230038 | 80 | 171 | 4.3 | 7.0 | 0.00 | 0.00 | 0.00 | 46 | 1004.8 |
| 20260901224537 | 79 | 172 | 2.6 | 7.0 | 0.00 | 0.00 | 0.00 | 44 | 1004.9 |
| 20260901223034 | 79 | 173 | 3.5 | 6.1 | 0.00 | 0.00 | 0.00 | 46 | 1005.2 |
| 20260901221542 | 78 | 176 | 2.6 | 6.1 | 0.00 | 0.00 | 0.00 | 46 | 1005.2 |
| 20260901220043 | 78 | 176 | 0.9 | 2.6 | 0.00 | 0.00 | 0.00 | 48 | 1005.2 |
| 20260901214540 | 77 | 0 | 0.9 | 4.3 | 0.00 | 0.00 | 0.00 | 48 | 1005.4 |
| 20260901213040 | 77 | 176 | 3.5 | 6.1 | 0.00 | 0.00 | 0.00 | 54 | 1005.6 |
| 20260901211537 | 76 | 176 | 2.6 | 6.1 | 0.00 | 0.00 | 0.00 | 53 | 1005.6 |
| 20260901210047 | 76 | 176 | 5.2 | 9.6 | 0.00 | 0.00 | 0.00 | 56 | 1005.7 |
| 20260901204535 | 75 | 166 | 2.6 | 9.6 | 0.00 | 0.00 | 0.00 | 56 | 1005.8 |
| 20260901203041 | 74 | 161 | 4.3 | 7.8 | 0.00 | 0.00 | 0.00 | 59 | 1006.2 |
| 20260901201537 | 72 | 143 | 3.5 | 6.1 | 0.00 | 0.00 | 0.00 | 57 | 1006.4 |
| 20260901200036 | 72 | 145 | 3.5 | 7.0 | 0.00 | 0.00 | 0.00 | 56 | 1006.4 |
| 20260901194537 | 72 | 141 | 3.5 | 7.8 | 0.00 | 0.00 | 0.00 | 56 | 1006.7 |
| 20260901193039 | 71 | 216 | 1.7 | 6.1 | 0.00 | 0.00 | 0.00 | 57 | 1006.6 |
| 20260901191539 | 70 | 216 | 2.6 | 6.1 | 0.00 | 0.00 | 0.00 | 56 | 1006.9 |
| 20260901190044 | 69 | 225 | 1.7 | 4.3 | 0.00 | 0.00 | 0.00 | 56 | 1007.0 |
| 20260901184534 | 68 | 225 | 1.7 | 3.5 | 0.00 | 0.00 | 0.00 | 62 | 1007.0 |
| 20260901183039 | 68 | 0 | 0.9 | 3.5 | 0.00 | 0.00 | 0.00 | 60 | 1007.0 |
| 20260901181541 | 68 | 225 | 1.7 | 3.5 | 0.00 | 0.00 | 0.00 | 62 | 1006.8 |
| 20260901180040 | 68 | 243 | 1.7 | 3.5 | 0.00 | 0.00 | 0.00 | 60 | 1007.0 |
| 20260901174548 | 68 | 243 | 1.7 | 4.3 | 0.00 | 0.00 | 0.00 | 60 | 1007.2 |
| 20260901173041 | 67 | 247 | 1.7 | 5.2 | 0.00 | 0.00 | 0.00 | 61 | 1007.4 |
| 20260901171544 | 67 | 0 | 0.0 | 1.7 | 0.00 | 0.00 | 0.00 | 61 | 1006.9 |
| 20260901170044 | 67 | 0 | 0.0 | 0.0 | 0.00 | 0.00 | 0.00 | 62 | 1006.9 |
| 20260901164545 | 66 | 0 | 0.0 | 2.6 | 0.00 | 0.00 | 0.00 | 61 | 1006.9 |
| 20260901163101 | 65 | 0 | 0.0 | 3.5 | 0.00 | 0.00 | 0.00 | 62 | 1007.0 |
| 20260901161540 | 65 | 0 | 0.0 | 2.6 | 0.00 | 0.00 | 0.00 | 64 | 1007.1 |
| 20260901160040 | 64 | 261 | 1.7 | 6.1 | 0.00 | 0.00 | 0.00 | 64 | 1006.8 |
| 20260901154549 | 62 | 254 | 1.7 | 4.3 | 0.00 | 0.00 | 0.00 | 68 | 1006.5 |
| 20260901153043 | 61 | 254 | 1.7 | 3.5 | 0.00 | 0.00 | 0.00 | 67 | 1006.7 |
| 20260901151538 | 59 | 0 | 0.0 | 2.6 | 0.00 | 0.00 | 0.00 | 74 | 1006.8 |